Campo, CA

1:48 AM PDT on March 24, 2017 (GMT -0700)
Campo

Weather History for KCZZ - March, 2014

Change the Weather History Date:

Saturday, March 8, 2014

  Actual Average Record
Temperature  
Mean Temperature 59 °F 51 °F  
Max Temperature 71 °F 66 °F 84 °F (1972)
Min Temperature 47 °F 36 °F 21 °F (1964)
Degree Days  
Heating Degree Days 6 14  
Month to date heating degree days 93 113  
Since 1 July heating degree days 1963 2164  
Cooling Degree Days 0 0  
Month to date cooling degree days 0 0  
Year to date cooling degree days 0 0  
Growing Degree Days 12 (Base 50)    
Moisture  
Dew Point 18 °F    
Average Humidity 20    
Maximum Humidity 28    
Minimum Humidity 11    
Precipitation  
Precipitation 0.00 in 0.11 in 1.54 in (1968)
Month to date precipitation 0.64 0.87  
Year to date precipitation 1.96 7.08  
Since 1 July precipitation 6.15  
Snow  
Snow 0.00 in - - ()
Month to date snowfall 0.0  
Year to date snowfall 0.0  
Snow Depth 0.00 in    
Sea Level Pressure  
Sea Level Pressure 30.00 in    
Wind  
Wind Speed 18 mph (NE)    
Max Wind Speed 35 mph    
Max Gust Speed 42 mph    
T = Trace of Precipitation, MM = Missing Value Source: NWS Daily Summary

Daily Weather History Graph

Daily Weather History Graph

Search for Another Location

Airport or City:

Trip Planner

Search our weather history database for the weather conditions in past years. The results will help you decide how hot, cold, wet, or windy it might be!

Date:

Astronomy

Mar. 08, 2014 Rise Set
Actual Time 6:04 AM PST 5:48 PM PST
Civil Twilight 5:40 AM PST 6:13 PM PST
Nautical Twilight 5:11 AM PST 6:41 PM PST
Astronomical Twilight 4:43 AM PST 7:10 PM PST
Moon 11:10 AM PST (3/8) 12:30 AM PST (3/8)
Length of Visible Light 12h 32m
Length of Day
11h 43m
First Quarter, 53% of the Moon is Illuminated
Mar 8
First Quarter
Mar 16
Full
Mar 23
Last Quarter
Mar 30
New
Apr 7
First Quarter

Hourly Weather History & Observations

Time (PST) Temp. Dew Point Humidity Pressure Visibility Wind Dir Wind Speed Gust Speed Precip Events Conditions
12:52 AM 53.1 °F 21.0 °F 29% 29.92 in - Variable 3.5 mph - N/A   Unknown
1:52 AM 57.9 °F 19.0 °F 22% 29.91 in - ENE 10.4 mph - N/A   Unknown
2:52 AM 57.9 °F 19.0 °F 22% 29.91 in - NE 11.5 mph 18.4 mph N/A   Unknown
3:52 AM 57.9 °F 19.9 °F 23% 29.91 in - NE 12.7 mph 23.0 mph N/A   Unknown
4:52 AM 57.9 °F 19.0 °F 22% 29.93 in - NE 18.4 mph 32.2 mph N/A   Unknown
5:52 AM 57.0 °F 21.0 °F 25% 29.96 in - NE 23.0 mph 35.7 mph N/A   Unknown
6:52 AM 57.9 °F 21.9 °F 25% 30.01 in - NNE 9.2 mph 17.3 mph N/A   Unknown
7:52 AM 61.0 °F 21.9 °F 22% 30.00 in - NE 24.2 mph 35.7 mph N/A   Unknown
8:52 AM 63.0 °F 21.9 °F 21% 30.01 in - NE 27.6 mph 36.8 mph N/A   Unknown
9:52 AM 64.9 °F 21.0 °F 19% 30.02 in - NE 24.2 mph 33.4 mph N/A   Unknown
10:52 AM 66.9 °F 19.9 °F 17% 30.03 in - NE 25.3 mph 41.4 mph N/A   Unknown
11:52 AM 66.9 °F 19.0 °F 16% 30.01 in - NNE 28.8 mph 40.3 mph N/A   Unknown
12:52 PM 69.1 °F 19.0 °F 15% 30.01 in - NE 19.6 mph 35.7 mph N/A   Unknown
1:52 PM 70.0 °F 19.0 °F 14% 29.99 in - NE 25.3 mph 34.5 mph N/A   Unknown
2:52 PM 69.1 °F 14.0 °F 12% 30.00 in - NNE 21.9 mph 33.4 mph N/A   Unknown
3:52 PM 68.0 °F 12.0 °F 11% 30.01 in - NE 21.9 mph 28.8 mph N/A   Unknown
4:52 PM 66.9 °F 12.9 °F 12% 30.00 in - NE 15.0 mph 29.9 mph N/A   Unknown
5:52 PM 64.0 °F 15.1 °F 15% 30.02 in - NNE 16.1 mph 25.3 mph N/A   Unknown
6:52 PM 63.0 °F 15.1 °F 16% 30.03 in - NE 10.4 mph 23.0 mph N/A   Unknown
7:52 PM 64.0 °F 15.1 °F 15% 30.04 in - NE 16.1 mph 23.0 mph N/A   Unknown
8:52 PM 64.9 °F 12.9 °F 13% 30.04 in - NNE 11.5 mph 27.6 mph N/A   Unknown
9:52 PM 64.0 °F 15.1 °F 15% 30.05 in - North 8.1 mph 27.6 mph N/A   Unknown
10:52 PM 64.0 °F 16.0 °F 16% 30.04 in - NNE 16.1 mph 27.6 mph N/A   Unknown
11:52 PM 64.0 °F 14.0 °F 14% 30.04 in - NNE 17.3 mph 25.3 mph N/A   Unknown